When you browse on this site, cookies collect data to enhance your experience and personalize the content and advertising you see.
Visit our Privacy Policy to learn more. By continuing to use the site, you agree to this use of cookies and data.

Hourly Weather Druskininkai

Today, 12 July, Sunday

Time Temperature Precipitation Wind Pressure Humidity
00:00 +13°C° 0 mm 2 mps 755 mmHg 91%
01:00 +12°C° 0 mm 2 mps 755 mmHg 91%
02:00 +12°C° 0 mm 2 mps 756 mmHg 93%
03:00 +12°C° 0 mm 2 mps 755 mmHg 93%
04:00 +10°C° 0 mm 2 mps 755 mmHg 92%
05:00 +10°C° 0 mm 2 mps 755 mmHg 92%
06:00 +12°C° 0 mm 2 mps 755 mmHg 87%
07:00 +13°C° 0 mm 2 mps 755 mmHg 83%
08:00 +14°C° 0 mm 3 mps 756 mmHg 77%
09:00 +16°C° 0.1 mm 3 mps 755 mmHg 72%
10:00 +17°C° 0.1 mm 3 mps 755 mmHg 67%
11:00 +18°C° 0.1 mm 3 mps 755 mmHg 62%
12:00 +18°C° 0.1 mm 3 mps 755 mmHg 61%
13:00 +19°C° 0.1 mm 4 mps 755 mmHg 60%
14:00 +19°C° 0.1 mm 4 mps 755 mmHg 58%
15:00 +19°C° 0.1 mm 4 mps 755 mmHg 60%
16:00 +18°C° 0.1 mm 4 mps 755 mmHg 62%
17:00 +18°C° 0.1 mm 4 mps 755 mmHg 64%
18:00 +17°C° 0 mm 3 mps 755 mmHg 68%
19:00 +16°C° 0 mm 3 mps 755 mmHg 72%
20:00 +15°C° 0 mm 2 mps 755 mmHg 76%
21:00 +14°C° 0 mm 2 mps 755 mmHg 82%
22:00 +12°C° 0 mm 2 mps 755 mmHg 87%
23:00 +10°C° 0 mm 2 mps 755 mmHg 92%

Tomorrow, 13 July, Monday

Time Temperature Precipitation Wind Pressure Humidity
00:00 +9°C° 0 mm 2 mps 755 mmHg 93%
01:00 +9°C° 0 mm 2 mps 756 mmHg 95%
02:00 +8°C° 0 mm 2 mps 756 mmHg 96%
03:00 +8°C° 0 mm 2 mps 755 mmHg 96%
04:00 +8°C° 0 mm 2 mps 755 mmHg 97%
05:00 +8°C° 0 mm 2 mps 755 mmHg 97%
06:00 +10°C° 0 mm 2 mps 755 mmHg 90%
07:00 +12°C° 0 mm 3 mps 755 mmHg 82%
08:00 +14°C° 0 mm 3 mps 755 mmHg 75%
09:00 +16°C° 0.1 mm 3 mps 755 mmHg 69%
10:00 +18°C° 0.1 mm 3 mps 754 mmHg 63%
11:00 +19°C° 0.1 mm 3 mps 754 mmHg 57%
12:00 +19°C° 0.1 mm 3 mps 754 mmHg 56%
13:00 +20°C° 0.1 mm 3 mps 754 mmHg 55%
14:00 +20°C° 0.1 mm 3 mps 754 mmHg 54%
15:00 +20°C° 0.1 mm 3 mps 753 mmHg 55%
16:00 +20°C° 0.1 mm 3 mps 753 mmHg 57%
17:00 +20°C° 0.1 mm 3 mps 753 mmHg 58%
18:00 +19°C° 0.1 mm 3 mps 753 mmHg 66%
19:00 +18°C° 0.1 mm 3 mps 753 mmHg 75%
20:00 +16°C° 0.1 mm 3 mps 752 mmHg 84%
21:00 +15°C° 0 mm 2 mps 753 mmHg 88%
22:00 +14°C° 0 mm 2 mps 753 mmHg 92%
23:00 +13°C° 0 mm 2 mps 753 mmHg 96%

Day after tomorrow, 14 July, Tuesday

Time Temperature Precipitation Wind Pressure Humidity
00:00 +12°C° 0 mm 2 mps 753 mmHg 97%
01:00 +12°C° 0 mm 2 mps 753 mmHg 97%
02:00 +10°C° 0 mm 2 mps 753 mmHg 97%
03:00 +10°C° 0 mm 2 mps 753 mmHg 97%
04:00 +10°C° 0 mm 2 mps 753 mmHg 97%
05:00 +10°C° 0 mm 2 mps 752 mmHg 97%
06:00 +13°C° 0 mm 2 mps 752 mmHg 91%
07:00 +14°C° 0 mm 2 mps 753 mmHg 85%
08:00 +16°C° 0 mm 2 mps 753 mmHg 79%
09:00 +17°C° 0.1 mm 2 mps 752 mmHg 74%
10:00 +18°C° 0.1 mm 2 mps 752 mmHg 70%
11:00 +19°C° 0.1 mm 2 mps 752 mmHg 66%
12:00 +20°C° 0.1 mm 2 mps 752 mmHg 62%
13:00 +21°C° 0.1 mm 3 mps 752 mmHg 59%
14:00 +21°C° 0.1 mm 3 mps 752 mmHg 56%
15:00 +21°C° 0.1 mm 3 mps 751 mmHg 56%
16:00 +22°C° 0.1 mm 3 mps 751 mmHg 57%
17:00 +22°C° 0.1 mm 3 mps 751 mmHg 58%
18:00 +20°C° 0.1 mm 3 mps 751 mmHg 66%
19:00 +19°C° 0.1 mm 2 mps 751 mmHg 74%
20:00 +17°C° 0.1 mm 2 mps 751 mmHg 83%
21:00 +16°C° 0 mm 2 mps 751 mmHg 87%
22:00 +15°C° 0 mm 2 mps 751 mmHg 91%
23:00 +14°C° 0 mm 2 mps 751 mmHg 96%

15 July, Wednesday

Time Temperature Precipitation Wind Pressure Humidity
00:00 +13°C° 0 mm 2 mps 751 mmHg 96%
01:00 +13°C° 0 mm 1 mps 751 mmHg 96%
02:00 +13°C° 0 mm 1 mps 751 mmHg 96%
03:00 +12°C° 0 mm 1 mps 751 mmHg 95%
04:00 +12°C° 0 mm 1 mps 751 mmHg 95%
05:00 +12°C° 0 mm 1 mps 751 mmHg 95%
06:00 +14°C° 0 mm 1 mps 751 mmHg 86%
07:00 +16°C° 0 mm 1 mps 751 mmHg 77%
08:00 +19°C° 0 mm 1 mps 751 mmHg 68%
09:00 +20°C° 0 mm 1 mps 751 mmHg 61%
10:00 +22°C° 0 mm 1 mps 751 mmHg 53%
11:00 +23°C° 0 mm 2 mps 750 mmHg 45%
12:00 +24°C° 0 mm 2 mps 750 mmHg 43%
13:00 +24°C° 0 mm 2 mps 750 mmHg 41%
14:00 +25°C° 0 mm 2 mps 750 mmHg 39%
15:00 +25°C° 0 mm 2 mps 750 mmHg 41%
16:00 +25°C° 0 mm 2 mps 749 mmHg 43%
17:00 +24°C° 0 mm 2 mps 749 mmHg 44%
18:00 +23°C° 0 mm 1 mps 749 mmHg 53%
19:00 +21°C° 0 mm 1 mps 749 mmHg 61%
20:00 +20°C° 0 mm 1 mps 749 mmHg 69%
21:00 +18°C° 0 mm 1 mps 749 mmHg 73%
22:00 +16°C° 0 mm 1 mps 749 mmHg 76%
23:00 +15°C° 0 mm 1 mps 749 mmHg 80%

16 July, Thursday

Time Temperature Precipitation Wind Pressure Humidity
00:00 +14°C° 0 mm 1 mps 749 mmHg 81%
01:00 +14°C° 0 mm 1 mps 749 mmHg 82%
02:00 +14°C° 0 mm 1 mps 749 mmHg 83%
03:00 +13°C° 0 mm 1 mps 748 mmHg 83%
04:00 +13°C° 0 mm 1 mps 748 mmHg 84%
05:00 +13°C° 0 mm 1 mps 748 mmHg 84%
06:00 +15°C° 0 mm 2 mps 748 mmHg 79%
07:00 +17°C° 0 mm 2 mps 747 mmHg 74%
08:00 +19°C° 0 mm 2 mps 747 mmHg 68%
09:00 +21°C° 0.1 mm 2 mps 747 mmHg 63%
10:00 +22°C° 0.1 mm 3 mps 747 mmHg 58%
11:00 +25°C° 0.1 mm 3 mps 747 mmHg 53%
12:00 +25°C° 0.4 mm 3 mps 746 mmHg 56%
13:00 +25°C° 0.4 mm 3 mps 746 mmHg 59%
14:00 +23°C° 0.4 mm 4 mps 746 mmHg 63%
15:00 +22°C° 1.3 mm 3 mps 746 mmHg 72%
16:00 +20°C° 1.3 mm 3 mps 746 mmHg 80%
17:00 +18°C° 1.3 mm 3 mps 746 mmHg 89%
18:00 +17°C° 0.7 mm 3 mps 746 mmHg 92%
19:00 +16°C° 0.7 mm 2 mps 746 mmHg 95%
20:00 +15°C° 0.7 mm 1 mps 746 mmHg 98%
21:00 +15°C° 0.9 mm 1 mps 747 mmHg 98%
22:00 +15°C° 0.9 mm 1 mps 747 mmHg 98%
23:00 +15°C° 0.9 mm 1 mps 747 mmHg 98%

17 July, Friday

Time Temperature Precipitation Wind Pressure Humidity
00:00 +14°C° 0.2 mm 1 mps 747 mmHg 98%
01:00 +14°C° 0.2 mm 1 mps 747 mmHg 98%
02:00 +14°C° 0.2 mm 1 mps 747 mmHg 98%
03:00 +14°C° 0.4 mm 1 mps 747 mmHg 98%
04:00 +14°C° 0.4 mm 1 mps 746 mmHg 98%
05:00 +14°C° 0.4 mm 1 mps 746 mmHg 98%
06:00 +14°C° 1.8 mm 2 mps 746 mmHg 98%
07:00 +15°C° 1.8 mm 2 mps 747 mmHg 98%
08:00 +14°C° 1.8 mm 3 mps 747 mmHg 97%
09:00 +14°C° 2.4 mm 3 mps 747 mmHg 97%
10:00 +14°C° 2.4 mm 3 mps 747 mmHg 96%
11:00 +14°C° 2.4 mm 3 mps 747 mmHg 95%
12:00 +14°C° 2.3 mm 3 mps 747 mmHg 95%
13:00 +14°C° 2.3 mm 3 mps 747 mmHg 95%
14:00 +14°C° 2.3 mm 3 mps 747 mmHg 94%
15:00 +14°C° 1.3 mm 3 mps 747 mmHg 93%
16:00 +14°C° 1.3 mm 3 mps 747 mmHg 92%
17:00 +14°C° 1.3 mm 3 mps 747 mmHg 91%
18:00 +14°C° 0.6 mm 3 mps 747 mmHg 91%
19:00 +14°C° 0.6 mm 2 mps 747 mmHg 92%
20:00 +14°C° 0.6 mm 2 mps 747 mmHg 92%
21:00 +14°C° 0.4 mm 2 mps 748 mmHg 93%
22:00 +14°C° 0.4 mm 2 mps 748 mmHg 94%
23:00 +14°C° 0.4 mm 2 mps 748 mmHg 94%
Show more